Location: Allie Creek
(37.5926°N, 89.8526°W)
Time: 04:09:26
(UTC+00:00)

Cosmos 2341 Rocket - Pass Details

Date: 26 September 2023
Orbit: 968 x 1003 km, 82.9° (Epoch: 29 November)

Event Time Altitude Azimuth Distance (km) Brightness Sun altitude
Rises 00:56:41 0° 351° (N) 3,689 7.3 -13.6°
Reaches altitude 10° 00:59:12 10° 351° (N) 2,742 6.6 -14.1°
Maximum altitude 01:05:29 79° 265° (W) 1,010 4.2 -15.3°
Drops below altitude 10° 01:11:47 10° 180° (S) 2,749 6.2 -16.6°
Sets 01:14:19 0° 179° (S) 3,699 6.9 -17.1°
